Regional Weather Roundup
Issued by NWS

Home | Current Version | Previous Version | Graphics & Text | Print | Product List | Glossary On
Versions: 1 2 3 4 5 6 7 8 9 10 11 12 13 14 15 16 17 18 19 20 21 22 23 24 25 26 27 28 29 30 31 32 33 34 35 36 37 38 39 40 41 42 43 44 45 46 47 48 49 50
000
ASUS43 KLOT 110600
RWRIL

ILLINOIS REGIONAL WEATHER ROUNDUP
NATIONAL WEATHER SERVICE CHICAGO/ROMEOVILLE IL
100 AM CDT FRI JUL 11 2014

NOTE: "FAIR" INDICATES FEW OR NO CLOUDS BELOW 12,000 FEET WITH NO
SIGNIFICANT WEATHER AND/OR OBSTRUCTIONS TO VISIBILITY.

* THESE STATIONS ARE NOT UNDER NWS QUALITY CONTROL. THEY ALSO MAY NOT
  REPORT WEATHER SUCH AS PRECIPITATION OR FOG.

ILZ001-002-007-009-015-016-024-110700-
NORTHWEST ILLINOIS

CITY           SKY/WX    TMP DP  RH WIND       PRES   REMARKS
MOLINE         PTCLDY    64  58  80 S7        30.15R
6HR MIN TEMP:  64; 6HR MAX TEMP:  78;

STERLING*      MOCLDY    64  57  77 S3        30.17R
$$

ILZ003-004-008-010-011-017-018-110700-
NORTH CENTRAL ILLINOIS

CITY           SKY/WX    TMP DP  RH WIND       PRES   REMARKS
ROCKFORD       MOCLDY    64  54  69 S7        30.20R
6HR MIN TEMP:  64; 6HR MAX TEMP:  77;

FREEPORT*      MOCLDY    61  57  86 SE7       30.19R
$$

ILZ005-006-012>014-019>023-110700-
NORTHEAST ILLINOIS

CITY           SKY/WX    TMP DP  RH WIND       PRES   REMARKS
CHICAGO-OHARE  MOCLDY    64  51  62 CALM      30.18R
6HR MIN TEMP:  64; 6HR MAX TEMP:  74;

CHICAGO-MIDWAY MOCLDY    68  57  68 SE3       30.18R
6HR MIN TEMP:  68; 6HR MAX TEMP:  75;

AURORA         PTCLDY    60  54  80 CALM      30.19R
6HR MIN TEMP:  60; 6HR MAX TEMP:  77;

WAUKEGAN       PTCLDY    58  53  84 CALM      30.18R
6HR MIN TEMP:  57; 6HR MAX TEMP:  68;

DUPAGE AIRPORT PTCLDY    62  53  72 CALM      30.19R
6HR MIN TEMP:  62; 6HR MAX TEMP:  75;

WHEELING       PTCLDY    64  54  69 CALM      30.20R
6HR MIN TEMP:  63; 6HR MAX TEMP:  73;

NORTHERLY ISL    N/A     66  60  81 SE1         N/A
$$

LMZ740>746-110700-
SOUTHERN LAKE MICHIGAN

STATION/POSITION SKY/WX   TEMP    WIND        PRES    VSBY  WAVE
                          AIR SEA DIR/SP/G                  HT/PER
                          (F)     (DEG/KT/KT) (MB)    (MI)  (FT/S)
SOUTHERN BUOY              61 60  140/  4/  4 1022.1F         0
WAUKEGAN HARBOR            64     210/  4/  5 1023.0S
HARRISON CRIB              67     140/  6/  8   N/A
BURNHAM HARBOR             65     150/  2/  2   N/A
CALUMET HARBOR             67     110/  5/  5 1022.7R
MICHIGAN CITY              63     100/  6/  7   N/A
$$

ILZ025>027-034>036-040-047-049-050-058-095>099-110700-
WEST-CENTRAL ILLINOIS

CITY           SKY/WX    TMP DP  RH WIND       PRES   REMARKS
QUINCY         PTCLDY    64  57  78 SE6       30.15R
MACOMB*        PTCLDY    60  57  90 SE5       30.18S
$$

ILZ028>032-037-038-041>044-048-051>054-059>061-110700-
CENTRAL ILLINOIS

CITY           SKY/WX    TMP DP  RH WIND       PRES   REMARKS
DECATUR        PTCLDY    59  56  89 E3        30.18S
PEORIA         MOCLDY    68  57  68 SE5       30.17S
6HR MIN TEMP:  67; 6HR MAX TEMP:  78;

SPRINGFIELD    PTCLDY    61  57  87 CALM      30.17S
6HR MIN TEMP:  60; 6HR MAX TEMP:  79;

TAYLORVILLE    NOT AVBL
$$

ILZ033-039-045-046-055>057-062-063-110700-
EAST-CENTRAL ILLINOIS

CITY           SKY/WX    TMP DP  RH WIND       PRES   REMARKS
CHAMPAIGN      CLEAR     62  56  80 E6        30.19S
MATTOON          N/A     64  56  75 CALM      30.17S
$$

ILZ079-100>102-110700-
SOUTHWEST ILLINOIS

CITY           SKY/WX    TMP DP  RH WIND       PRES   REMARKS
BELLEVILLE     CLEAR     64  62  94 CALM      30.15S FOG
CAHOKIA*       CLEAR     63  60  90 CALM      30.15S
$$

ILZ064>066-069>071-074>076-080>082-084>086-088>090-092>094-110700-
SOUTH-CENTRAL ILLINOIS

CITY           SKY/WX    TMP DP  RH WIND       PRES   REMARKS
CARBONDALE     CLEAR     64  62  93 CALM      30.14S FOG
6HR MIN TEMP:  64; 6HR MAX TEMP:  80;

MT. VERNON     CLEAR     63  57  82 NE3       30.16S
SALEM*         CLEAR     68  61  77 CALM      30.17R
$$

ILZ067-068-072-073-078-083-087-091-110700-
SOUTHEAST ILLINOIS

CITY           SKY/WX    TMP DP  RH WIND       PRES   REMARKS
$$

ABBREVIATIONS USED IN REMARKS
   TC - TEMPERATURE IN CELSIUS
  WCI - WIND CHILL INDEX
   HX - HEAT INDEX
  VSB - VISIBILITY
$$




USA.gov is the U.S. government's official web portal to all federal, state and local government web resources and services.